RYR8072 EPPO-LGKR

Flight info

Callsign RYR8072
Flight time N/A
Altitude 35000
Route XIDNA DCT MISKA L616 DESEN DCT VALPI DCT OSDUK DCT RODON/N0399F190 N732 PITAS
Aircraft B738/M-SDE2E3FGHIRWXY/LB1

Departure

Time 2026-05-07 07:32
Airport Poznań-Ławica Airport (EPPO)

Arrival

Time N/A
Airport Corfu Ioannis Kapodistrias International Airport (LGKR)
Time Latitude Longitude Altitude Speed Heading
2026-05-07 07:16 52.41547 16.83326 287 ft 0 kts 192°
2026-05-07 07:27 52.41549 16.83327 287 ft 3 kts 192°
2026-05-07 07:27 52.41574 16.83328 287 ft 4 kts 159°
2026-05-07 07:28 52.41595 16.83312 289 ft 1 kts 153°
2026-05-07 07:30 52.41594 16.83325 290 ft 3 kts 95°
2026-05-07 07:30 52.41580 16.83460 289 ft 22 kts 103°
2026-05-07 07:30 52.41563 16.83691 287 ft 20 kts 93°
2026-05-07 07:30 52.41579 16.83907 288 ft 19 kts 58°
2026-05-07 07:31 52.41689 16.84016 287 ft 19 kts 20°
2026-05-07 07:31 52.41808 16.84081 288 ft 12 kts 360°
2026-05-07 07:31 52.41829 16.84050 288 ft 2 kts 285°
2026-05-07 07:31 52.41894 16.83719 291 ft 65 kts 288°
2026-05-07 07:32 52.42096 16.82671 287 ft 128 kts 288°
2026-05-07 07:32 52.42410 16.81029 436 ft 163 kts 292°
2026-05-07 07:32 52.42761 16.79222 1120 ft 171 kts 292°
2026-05-07 07:32 52.43143 16.77300 1706 ft 187 kts 292°
2026-05-07 07:33 52.43574 16.75125 2012 ft 211 kts 290°
2026-05-07 07:33 52.43917 16.72697 2234 ft 235 kts 269°
2026-05-07 07:33 52.43195 16.70220 2527 ft 253 kts 221°
2026-05-07 07:33 52.41701 16.68874 3364 ft 244 kts 194°
2026-05-07 07:34 52.39999 16.68763 3896 ft 249 kts 170°
2026-05-07 07:34 52.38314 16.69421 4569 ft 249 kts 167°
2026-05-07 07:34 52.36642 16.70183 5189 ft 249 kts 166°
2026-05-07 07:34 52.34978 16.70959 5838 ft 251 kts 166°
2026-05-07 07:35 52.33243 16.71763 6306 ft 264 kts 166°
2026-05-07 07:35 52.31482 16.72574 7004 ft 266 kts 166°
2026-05-07 07:35 52.29700 16.73389 7766 ft 267 kts 166°
2026-05-07 07:35 52.27893 16.74209 8461 ft 271 kts 166°
2026-05-07 07:36 52.26070 16.75033 9180 ft 273 kts 166°
2026-05-07 07:36 52.24226 16.75864 9901 ft 276 kts 166°
2026-05-07 07:36 52.22345 16.76707 10345 ft 288 kts 166°
2026-05-07 07:36 52.20336 16.77603 10502 ft 310 kts 166°
2026-05-07 07:37 52.18190 16.78559 10662 ft 330 kts 166°
2026-05-07 07:37 52.16692 16.79226 10758 ft 343 kts 166°
2026-05-07 07:37 52.14326 16.80278 10906 ft 361 kts 166°
2026-05-07 07:37 52.11863 16.81374 11215 ft 372 kts 166°
2026-05-07 07:38 52.09343 16.82494 11680 ft 378 kts 166°
2026-05-07 07:38 52.06791 16.83627 12258 ft 381 kts 166°
2026-05-07 07:38 52.04226 16.84765 12867 ft 384 kts 166°
2026-05-07 07:38 52.01637 16.85911 13478 ft 387 kts 166°
2026-05-07 07:39 51.99025 16.87066 14050 ft 391 kts 167°
2026-05-07 07:39 51.96382 16.88231 14682 ft 394 kts 167°
2026-05-07 07:39 51.93726 16.89401 15327 ft 397 kts 167°
2026-05-07 07:39 51.91051 16.90579 15989 ft 399 kts 167°
2026-05-07 07:40 51.88352 16.91766 16557 ft 403 kts 167°
2026-05-07 07:40 51.85668 16.92945 17101 ft 406 kts 167°
2026-05-07 07:40 51.82930 16.94146 17655 ft 409 kts 167°
2026-05-07 07:40 51.80175 16.95354 18188 ft 412 kts 167°
2026-05-07 07:41 51.77400 16.96568 18663 ft 414 kts 168°
2026-05-07 07:41 51.74604 16.97790 19125 ft 417 kts 168°
2026-05-07 07:41 51.71800 16.98969 19666 ft 416 kts 171°
2026-05-07 07:41 51.68945 16.99579 20198 ft 413 kts 180°
2026-05-07 07:42 51.66080 16.99449 20674 ft 412 kts 187°
2026-05-07 07:42 51.63212 16.99035 21128 ft 414 kts 187°
2026-05-07 07:42 51.60328 16.98631 21572 ft 416 kts 187°
2026-05-07 07:42 51.57440 16.98241 22030 ft 417 kts 187°
2026-05-07 07:43 51.54541 16.97863 22486 ft 419 kts 187°
2026-05-07 07:43 51.51664 16.97498 22904 ft 420 kts 187°
2026-05-07 07:43 51.48744 16.97132 23331 ft 421 kts 187°
2026-05-07 07:43 51.45816 16.96768 23695 ft 423 kts 187°
2026-05-07 07:44 51.42878 16.96403 24033 ft 424 kts 187°
2026-05-07 07:44 51.39929 16.96037 24376 ft 425 kts 187°
2026-05-07 07:44 51.36977 16.95671 24702 ft 426 kts 187°
2026-05-07 07:44 51.34014 16.95304 25011 ft 428 kts 187°
2026-05-07 07:45 51.31038 16.94935 25255 ft 430 kts 187°
2026-05-07 07:45 51.28042 16.94564 25482 ft 433 kts 187°
2026-05-07 07:45 51.25023 16.94191 25768 ft 435 kts 187°
2026-05-07 07:45 51.22012 16.93900 26201 ft 434 kts 183°
2026-05-07 07:46 51.18998 16.94282 26736 ft 433 kts 175°
2026-05-07 07:46 51.16047 16.95225 27270 ft 433 kts 169°
2026-05-07 07:46 51.13184 16.96778 27705 ft 436 kts 162°
2026-05-07 07:46 51.10389 16.98627 28102 ft 435 kts 162°
2026-05-07 07:47 51.07595 17.00486 28532 ft 434 kts 162°
2026-05-07 07:47 51.04819 17.02321 29010 ft 431 kts 162°
2026-05-07 07:47 51.02058 17.04130 29513 ft 428 kts 163°